📊 Raw Sensor Data
Showing records 40726 to 40750 of 84,969 total
| ID | Distance (ft) | Battery V | Battery A | Int Temp (°F) | Int Humid (%) | Ext Temp (°F) | Solar V | RSSI | SNR | Time Stamp |
|---|---|---|---|---|---|---|---|---|---|---|
| 44256 | 15.3 | 3.89 | -5 | 63 | 46 | 64 | 0.10 | -68 | 8 | 06/22/2025 10:15 PM |
| 44255 | 15.3 | 3.88 | -5 | 64 | 47 | 65 | 0.10 | -68 | 8 | 06/22/2025 10:00 PM |
| 44254 | 15.3 | 3.89 | -5 | 64 | 48 | 65 | 0.00 | -69 | 8 | 06/22/2025 09:45 PM |
| 44253 | 15.3 | 3.89 | -5 | 65 | 49 | 66 | 0.00 | -69 | 8 | 06/22/2025 09:30 PM |
| 44252 | 15.3 | 3.89 | -5 | 66 | 50 | 66 | 0.00 | -68 | 7 | 06/22/2025 09:15 PM |
| 44251 | 15.3 | 3.89 | -5 | 67 | 52 | 66 | 0.00 | -68 | 8 | 06/22/2025 09:00 PM |
| 44250 | 15.3 | 3.89 | -5 | 69 | 53 | 68 | 1.50 | -69 | 7 | 06/22/2025 08:45 PM |
| 44249 | 15.4 | 3.88 | -10 | 74 | 53 | 70 | 2.20 | -69 | 8 | 06/22/2025 08:30 PM |
| 44248 | 15.4 | 3.97 | 0 | 78 | 52 | 74 | 4.50 | -69 | 7 | 06/22/2025 08:15 PM |
| 44247 | 15.4 | 3.98 | 0 | 81 | 51 | 76 | 4.50 | -69 | 7 | 06/22/2025 08:00 PM |
| 44246 | 15.4 | 3.99 | 9 | 85 | 50 | 77 | 4.50 | -68 | 7 | 06/22/2025 07:45 PM |
| 44245 | 15.5 | 3.93 | -13 | 87 | 49 | 80 | 4.50 | -69 | 7 | 06/22/2025 07:30 PM |
| 44244 | 15.5 | 4.01 | 6 | 90 | 48 | 84 | 4.50 | -70 | 7 | 06/22/2025 07:15 PM |
| 44243 | 15.4 | 4.04 | 8 | 90 | 48 | 82 | 4.50 | -70 | 7 | 06/22/2025 07:00 PM |
| 44242 | 15.4 | 4.01 | 49 | 91 | 47 | 82 | 4.50 | -69 | 8 | 06/22/2025 06:45 PM |
| 44241 | 15.4 | 3.94 | 0 | 91 | 47 | 82 | 5.10 | -70 | 8 | 06/22/2025 06:30 PM |
| 44240 | 15.4 | 3.94 | 0 | 92 | 47 | 82 | 5.10 | -69 | 8 | 06/22/2025 06:15 PM |
| 44239 | 15.4 | 4.05 | 5 | 93 | 47 | 83 | 5.10 | -70 | 8 | 06/22/2025 06:00 PM |
| 44238 | 15.5 | 3.94 | 5 | 94 | 46 | 82 | 5.10 | -70 | 8 | 06/22/2025 05:45 PM |
| 44237 | 15.5 | 4.07 | 5 | 94 | 45 | 83 | 5.10 | -70 | 7 | 06/22/2025 05:30 PM |
| 44236 | 15.4 | 3.94 | 5 | 94 | 45 | 83 | 5.10 | -70 | 8 | 06/22/2025 05:15 PM |
| 44235 | 15.4 | 4.07 | 5 | 94 | 45 | 82 | 5.10 | -70 | 7 | 06/22/2025 05:00 PM |
| 44234 | 15.4 | 3.94 | 5 | 94 | 44 | 83 | 5.10 | -70 | 7 | 06/22/2025 04:45 PM |
| 44233 | 15.5 | 3.94 | 5 | 94 | 43 | 82 | 5.10 | -69 | 8 | 06/22/2025 04:30 PM |
| 44232 | 15.4 | 4.11 | 5 | 93 | 43 | 83 | 5.10 | -69 | 8 | 06/22/2025 04:15 PM |